sat.trackr.live / text

‹ back to catalog

AE1D

NORAD 62618 · 2025-009K

PAYLOAD ACTIVE UNKNOWN

§ Identity

Operator
Country
JPN
Launch date
2025-01-14
Launch site
AFWTR
Launch vehicle
Mass (kg)
RCS (m²)

External: N2YO · Heavens-Above · Gunter

§ Orbital elements

Epoch: 2026-05-25T04:38:16.913184Z

Period
92.50 min
Inclination
97.3959°
Eccentricity
0.0001519
Mean motion
15.56765226 rev/d
Perigee alt
396.0 km
Apogee alt
398.1 km
Semi-major
6,775.2 km
B*
1.1947e-3
RAAN
234.1108°
Arg perigee
64.4136°
Mean anomaly
295.7276°
Rev number
7,586

§ Raw data

AE1D1 62618U 25009K   26145.19325131  .00086148  00000+0  11947-2 0  99922 62618  97.3959 234.1108 0001519  64.4136 295.7276 15.56765226 75865

JSON: /api/v1/satellites/62618 · /tle

For live sub-satellite position, see the globe view (requires WebGL).

§ Visibility from observer

Set your observer location to see the next 7 days of passes ≥ 10°. The values pass through the URL so the page stays shareable.

No JS? Fill the form by hand. The geolocation button needs JavaScript.